Location: ??
(34.7707°N, 135.6540°E)
Time: 05:32:21
(UTC+00:00)

Tiangong - Pass Details

Date: 03 October 2021
Orbit: 382 x 385 km, 41.5° (Epoch: 16 October)

Event Time Altitude Azimuth Distance (km) Brightness Sun altitude
Exits shadow 20:22:48 - 302° (WNW) 1,669 3.8 -7.3°
Reaches altitude 10° 20:23:30 10° 306° (NW) 1,397 3.4 -7.1°
Maximum altitude 20:26:29 38° 17° (NNE) 595 2.2 -6.5°
Drops below altitude 10° 20:29:27 10° 88° (E) 1,392 5.8 -5.9°
Sets 20:31:36 0° 96° (E) 2,243 7.7 -5.5°
